Location: Newark
(48.8656°N, 2.3211°E)
Time: 11:19:55
(UTC+00:00)

Envisat - Pass Details

Date: 11 December 2019
Orbit: 764 x 766 km, 98.1° (Epoch: 18 January)

Event Time Altitude Azimuth Distance (km) Brightness Sun altitude
Rises 17:00:01 0° 146° (SE) 3,223 6.1 -10.3°
Reaches altitude 10° 17:02:22 10° 140° (SE) 2,301 5.3 -10.7°
Maximum altitude 17:07:12 46° 68° (ENE) 1,027 3.2 -11.4°
Drops below altitude 10° 17:12:03 10° 357° (N) 2,316 5.3 -12.1°
Sets 17:14:26 0° 351° (N) 3,247 6.1 -12.5°
